Location: London
(51.5074°N, 0.1278°W)
Time: 08:42:22
(UTC+01:00)

M-CUBED/EXP-1 PRIME - Visible Passes

Search period start: 09 May 2021 00:00
Search period end: 19 May 2021 00:00
Orbit: 428 x 659 km, 101.7° (Epoch: 08 May)

Date Brightness Start Highest point End Pass type
(mag) Time Alt. Az. Time Alt. Az. Time Alt. Az.
09 May ? 01:31:26 10° N 01:34:57 38° WNW 01:35:37 34° W visible
09 May ? 23:51:45 10° NE 23:53:40 16° E 23:53:40 16° E visible
10 May ? 01:25:07 10° N 01:28:41 46° WNW 01:29:15 42° W visible
10 May ? 23:45:53 10° ENE 23:47:17 13° E 23:47:17 13° E visible
11 May ? 01:18:47 10° NNE 01:22:24 57° WNW 01:22:51 52° W visible
11 May ? 23:40:19 10° ENE 23:40:53 11° E 23:40:53 11° E visible
12 May ? 01:12:30 10° NNE 01:16:07 71° WNW 01:16:28 64° WSW visible
12 May ? 02:49:11 10° NW 02:49:32 10° NW 02:49:53 10° NW visible
13 May ? 01:06:12 10° NNE 01:09:49 88° WNW 01:10:04 76° SSW visible
13 May ? 02:42:02 10° NNW 02:43:20 12° NW 02:44:37 10° WNW visible
14 May ? 00:59:55 10° NNE 01:03:30 74° ESE 01:03:40 71° SE visible
14 May ? 02:35:21 10° NNW 02:37:08 13° NW 02:38:52 10° W visible
15 May ? 00:53:39 10° NNE 00:57:09 58° ESE 00:57:17 58° ESE visible
15 May ? 02:28:46 10° NNW 02:30:55 15° NW 02:32:51 11° W visible
16 May ? 00:47:24 10° NNE 00:50:48 46° ESE 00:50:52 46° ESE visible
16 May ? 02:22:15 10° N 02:24:41 18° NW 02:26:27 13° W visible
17 May ? 00:41:12 10° NE 00:44:27 36° ESE 00:44:28 36° ESE visible
17 May ? 02:15:46 10° N 02:18:27 21° NW 02:20:03 15° W visible
18 May ? 00:35:01 10° NE 00:38:04 29° ESE 00:38:04 29° ESE visible
18 May ? 02:09:19 10° N 02:12:12 24° WNW 02:13:38 18° W visible
